Date String (YYYY-MM-DD hh:mm:ss) UTC,Instrument flags,absolute air pressure of the measurement (hPa),sample flow rate (lpm),inlet stack bypass flow (lpm),air temperature of the measurement (°C),ambient temperature measured by the external sensor (°C),aerosol sample conditioner tube jacket temperature (°C),OPC LED temperature (°C),internal box temperature (°C),relative humidity of the measurement (%),span deviation,mass concentration of particles derived from Lorenz-Mie calculation of OPC scattering (μg/m³),mass concentration of particles derived from Lorenz-Mie calculation of OPC scattering (μg/m³),mass concentration of particles derived from Lorenz-Mie calculation of OPC scattering (μg/m³)
DateTimeUTC,F1_M11,P_M11,Q1_M11,Q2_M11,T1_M11,T2_M11,T3_M11,T4_M11,T5_M11,U1_M11,ZSPAN_M11,X0_M11,X2_M11,X1_M11
2024-06-09 21:00:00,SystemResetWarning,0832.1,4.99,000.00,029.1,028.3,000.0,037.5,031.0,039.5,-000.9,0020.89,0014.20,0013.04
2024-06-09 21:01:00,SystemResetWarning,0832.1,4.99,000.00,029.2,028.5,000.0,037.5,031.1,039.7,-001.2,0021.25,0014.19,0013.07
2024-06-09 21:02:00,SystemResetWarning,0832.0,5.00,000.00,029.3,028.7,000.0,037.5,031.2,039.5,-001.5,0022.08,0014.23,0013.13
2024-06-09 21:03:00,SystemResetWarning,0832.0,5.01,000.00,029.4,028.9,000.0,037.5,031.3,039.4,-001.8,0022.48,0014.26,0013.15
2024-06-09 21:04:00,SystemResetWarning,0832.0,5.01,000.00,029.5,029.1,000.0,037.6,031.4,039.2,-001.5,0022.00,0014.21,0013.10
2024-06-09 21:05:00,SystemResetWarning,0832.1,4.99,000.00,029.6,029.2,000.0,037.6,031.5,039.0,-001.1,0022.48,0014.25,0013.12
2024-06-09 21:06:00,SystemResetWarning,0832.0,4.99,000.00,029.6,029.4,000.0,037.6,031.6,038.6,-000.9,0022.24,0014.28,0013.13
2024-06-09 21:07:00,SystemResetWarning,0832.1,5.00,000.00,029.7,029.5,000.0,037.7,031.7,038.3,-000.9,0021.83,0014.31,0013.18
2024-06-09 21:08:00,SystemResetWarning,0832.0,5.00,000.00,029.8,029.1,000.0,037.8,031.5,038.1,-000.8,0021.67,0014.39,0013.26
2024-06-09 21:09:00,SystemResetWarning,0832.0,5.01,000.00,029.5,027.3,000.0,037.9,030.7,038.8,-000.8,0022.14,0014.48,0013.38
2024-06-09 21:10:00,SystemResetWarning,0832.0,5.01,000.00,029.3,026.7,000.0,037.9,030.4,039.3,-000.4,0022.15,0014.61,0013.49
2024-06-09 21:11:00,SystemResetWarning,0832.0,4.99,000.00,029.2,027.0,000.0,037.8,030.4,039.9,-000.2,0022.36,0014.74,0013.62
2024-06-09 21:12:00,SystemResetWarning,0832.0,4.99,000.00,029.2,027.4,000.0,037.7,030.7,040.0,0000.1,0022.61,0014.85,0013.67
2024-06-09 21:13:00,SystemResetWarning,0832.0,5.01,000.00,029.3,027.8,000.0,037.7,030.9,039.6,0000.2,0023.84,0014.94,0013.74
2024-06-09 21:14:00,SystemResetWarning,0832.1,4.99,000.00,029.3,028.1,000.0,037.7,031.0,039.3,-000.0,0024.26,0014.99,0013.80
2024-06-09 21:15:00,SystemResetWarning,0832.1,5.00,000.00,029.4,028.4,000.0,037.7,031.2,039.5,-000.1,0024.15,0015.04,0013.87
2024-06-09 21:16:00,SystemResetWarning,0832.1,4.99,000.00,029.5,028.7,000.0,037.7,031.3,039.2,-000.1,0023.86,0015.04,0013.87
2024-06-09 21:17:00,SystemResetWarning,0832.2,5.00,000.00,029.5,028.9,000.0,037.8,031.4,039.1,-000.2,0023.75,0015.05,0013.91
2024-06-09 21:18:00,SystemResetWarning,0832.2,5.01,000.00,029.6,029.1,000.0,037.8,031.5,039.0,-000.1,0024.20,0015.01,0013.87
2024-06-09 21:19:00,SystemResetWarning,0832.2,5.01,000.00,029.7,029.2,000.0,037.8,031.6,038.5,-000.4,0023.75,0014.90,0013.81
2024-06-09 21:20:00,SystemResetWarning,0832.2,5.01,000.00,029.8,029.4,000.0,037.8,031.7,038.3,-000.3,0023.74,0014.89,0013.79
2024-06-09 21:21:00,SystemResetWarning,0832.2,4.99,000.00,029.8,029.4,000.0,037.9,031.7,037.8,-000.6,0025.27,0014.85,0013.75
2024-06-09 21:22:00,SystemResetWarning,0832.1,4.98,000.00,029.7,027.9,000.0,038.0,030.9,038.2,-000.8,0025.37,0014.77,0013.72
2024-06-09 21:23:00,SystemResetWarning,0832.1,5.01,000.00,029.3,026.1,000.0,038.0,030.1,039.1,-000.9,0024.79,0014.69,0013.73
2024-06-09 21:24:00,SystemResetWarning,0832.1,5.01,000.00,029.1,025.9,000.0,037.9,029.9,040.0,-001.1,0022.82,0014.65,0013.74
2024-06-09 21:25:00,SystemResetWarning,0832.1,5.00,000.00,029.0,026.3,000.0,037.8,030.1,040.0,-000.6,0022.21,0014.64,0013.75
2024-06-09 21:26:00,SystemResetWarning,0832.1,5.00,000.00,029.0,026.8,000.0,037.7,030.3,039.8,-000.7,0022.05,0014.67,0013.82
2024-06-09 21:27:00,SystemResetWarning,0832.1,5.00,000.00,029.0,027.3,000.0,037.7,030.6,039.9,-000.9,0021.81,0014.79,0013.96
2024-06-09 21:28:00,SystemResetWarning,0832.1,5.00,000.00,029.1,027.7,000.0,037.6,030.8,040.0,-000.8,0021.87,0014.89,0014.06
2024-06-09 21:29:00,SystemResetWarning,0832.2,5.00,000.00,029.2,028.1,000.0,037.6,030.9,039.7,-000.7,0021.37,0014.95,0014.12
2024-06-09 21:30:00,SystemResetWarning,0832.2,5.00,000.00,029.2,028.4,000.0,037.6,031.1,039.4,-000.2,0021.87,0015.04,0014.21
2024-06-09 21:31:00,SystemResetWarning,0832.2,5.00,000.00,029.3,028.6,000.0,037.6,031.2,039.2,-000.2,0021.33,0015.08,0014.29
2024-06-09 21:32:00,SystemResetWarning,0832.2,5.00,000.00,029.4,028.8,000.0,037.6,031.3,039.0,-000.6,0019.58,0015.16,0014.40
2024-06-09 21:33:00,SystemResetWarning,0832.2,5.00,000.00,029.5,029.0,000.0,037.7,031.4,039.1,-000.6,0019.33,0015.33,0014.52
2024-06-09 21:34:00,SystemResetWarning,0832.2,5.00,000.00,029.6,029.2,000.0,037.7,031.5,038.6,-000.4,0019.51,0015.43,0014.57
2024-06-09 21:35:00,SystemResetWarning,0832.2,5.01,000.00,029.7,029.3,000.0,037.8,031.6,038.4,-000.4,0019.81,0015.50,0014.61
2024-06-09 21:36:00,SystemResetWarning,0832.2,4.99,000.00,029.7,029.3,000.0,037.8,031.6,038.1,-000.4,0019.51,0015.53,0014.63
2024-06-09 21:37:00,SystemResetWarning,0832.1,4.98,000.00,029.6,027.6,000.0,037.9,030.7,038.4,-000.3,0019.49,0015.53,0014.62
2024-06-09 21:38:00,SystemResetWarning,0832.0,5.01,000.00,029.2,026.0,000.0,037.9,029.9,039.6,-000.2,0019.93,0015.51,0014.58
2024-06-09 21:39:00,SystemResetWarning,0832.0,5.01,000.00,028.9,025.8,000.0,037.8,029.8,040.1,-000.2,0020.47,0015.49,0014.54
2024-06-09 21:40:00,SystemResetWarning,0832.0,5.00,000.00,028.8,026.2,000.0,037.7,029.9,040.3,-000.3,0020.50,0015.51,0014.55
2024-06-09 21:41:00,SystemResetWarning,0832.1,5.00,000.00,028.9,026.7,000.0,037.6,030.2,040.1,-000.6,0020.85,0015.50,0014.56
2024-06-09 21:42:00,SystemResetWarning,0832.1,5.00,000.00,028.9,027.2,000.0,037.6,030.5,039.9,-000.7,0020.97,0015.51,0014.56
2024-06-09 21:43:00,SystemResetWarning,0832.2,5.00,000.00,029.0,027.6,000.0,037.6,030.7,039.7,-000.3,0021.04,0015.52,0014.54
2024-06-09 21:44:00,SystemResetWarning,0832.2,5.00,000.00,029.1,027.9,000.0,037.5,030.9,039.6,-000.0,0020.96,0015.49,0014.55
2024-06-09 21:45:00,SystemResetWarning,0832.2,4.99,000.00,029.1,028.2,000.0,037.5,031.0,039.7,-000.3,0020.83,0015.44,0014.56
2024-06-09 21:46:00,SystemResetWarning,0832.2,5.00,000.00,029.2,028.5,000.0,037.5,031.1,039.3,-000.4,0020.81,0015.36,0014.53
2024-06-09 21:47:00,SystemResetWarning,0832.2,4.99,000.00,029.3,028.7,000.0,037.6,031.2,039.3,-000.2,0021.10,0015.37,0014.54
2024-06-09 21:48:00,SystemResetWarning,0832.2,5.00,000.00,029.4,028.9,000.0,037.6,031.3,038.9,-000.3,0021.16,0015.33,0014.51
2024-06-09 21:49:00,SystemResetWarning,0832.2,5.00,000.00,029.5,029.1,000.0,037.6,031.4,038.5,-000.3,0021.01,0015.35,0014.48
2024-06-09 21:50:00,SystemResetWarning,0832.2,5.00,000.00,029.6,029.2,000.0,037.7,031.5,038.3,-000.3,0020.73,0015.43,0014.51
2024-06-09 21:51:00,SystemResetWarning,0832.2,5.00,000.00,029.7,029.4,000.0,037.7,031.6,038.0,-000.1,0021.13,0015.50,0014.57
2024-06-09 21:52:00,SystemResetWarning,0832.2,5.01,000.00,029.7,029.5,000.0,037.8,031.7,038.0,0000.0,0020.63,0015.60,0014.65
2024-06-09 21:53:00,SystemResetWarning,0832.2,4.99,000.00,029.8,028.7,000.0,037.8,031.3,038.0,0000.1,0020.49,0015.67,0014.69
2024-06-09 21:54:00,SystemResetWarning,0832.1,5.00,000.00,029.4,026.5,000.0,037.9,030.3,039.0,0000.0,0020.62,0015.66,0014.68
2024-06-09 21:55:00,SystemResetWarning,0832.0,5.01,000.00,029.1,025.7,000.0,037.9,029.8,039.4,-000.1,0021.74,0015.57,0014.58
2024-06-09 21:56:00,SystemResetWarning,0832.0,5.01,000.00,028.9,025.9,000.0,037.8,029.8,039.8,-000.0,0022.11,0015.60,0014.61
2024-06-09 21:57:00,SystemResetWarning,0832.1,5.00,000.00,028.9,026.4,000.0,037.7,030.1,039.8,-000.1,0021.97,0015.68,0014.64
2024-06-09 21:58:00,SystemResetWarning,0832.1,5.00,000.00,028.9,026.9,000.0,037.6,030.4,039.7,-000.5,0021.64,0015.72,0014.70
2024-06-09 21:59:00,SystemResetWarning,0832.1,5.00,000.00,029.0,027.3,000.0,037.5,030.6,039.7,-000.7,0022.27,0015.85,0014.79
